This demonstration page uses our WeatherBlox Daily Observations layout. Learn more.

Left ArrowRight Arrow

Hourly Observations for April 7, 2022

Temp ( °F °C ) Dew Point ( °F °C ) Humidity (%) Winds ( mph kmh ) Pressure ( in mb ) Visibility ( mi km ) Precip ( " mm )
12:56 am 00:56 Cloudy 45 7.2 27 -2.8 49 49 NW 21 33 30.03 1017 10 16 0.00 0.00
1:56 am 01:56 Cloudy 43 6.1 28 -2.2 56 56 NNW 28 44 30.04 1017 10 16 0.00 0.00
2:56 am 02:56 Clear 38 3.3 30 -1.1 73 73 NW 16 26 30.05 1018 10 16 0.00 0.00
3:56 am 03:56 Clear 39 3.9 29 -1.7 67 67 NW 18 30 30.04 1017 10 16 0.00 0.00
4:56 am 04:56 Mostly Clear 38 3.3 28 -2.2 68 68 NW 18 30 30.04 1017 10 16 0.00 0.00
5:56 am 05:56 Cloudy 40 4.4 29 -1.7 65 65 NNW 24 39 30.03 1017 10 16 0.00 0.00
6:56 am 06:56 Cloudy 36 2.2 30 -1.1 79 79 NNW 14 22 30.04 1017 10 16 0.00 0.00
7:56 am 07:56 Mostly Cloudy 39 3.9 29 -1.7 67 67 NNW 22 35 30.04 1017 10 16 0.00 0.00
8:56 am 08:56 Cloudy with Light Rain 37 2.8 32 0 82 82 NW 26 43 30.06 1018 10 16 0.01 0.25
9:56 am 09:56 Mostly Cloudy 41 5 29 -1.7 62 62 NNW 39 63 30.04 1017 10 16 0.00 0.00
10:43 am 10:43 Hazy 43 6 25 -4 49 49 NNW 43 69 30.07 1018 6 10 0.00 0.00
10:49 am 10:49 Mostly Cloudy with Haze 43 6 21 -6 42 42 NNW 43 69 N/A 2 3 0.00 0.00
10:56 am 10:56 undefined 43 6.1 22 -5.6 43 43 undefined N/A N/A N/A 0.00 0.00
11:56 am 11:56 Hazy 45 7.2 21 -6.1 39 39 NNW 40 65 30.04 1017 5 8 0.00 0.00
12:56 pm 12:56 Cloudy 45 7.2 22 -5.6 40 40 NNW 37 59 30.05 1018 10 16 0.00 0.00
1:56 pm 13:56 Cloudy 44 6.7 22 -5.6 41 41 NNW 38 61 30.06 1018 9 14 0.00 0.00
2:56 pm 14:56 Cloudy 44 6.7 21 -6.1 40 40 NNW 36 57 30.07 1018 10 16 0.00 0.00
3:56 pm 15:56 Cloudy 44 6.7 22 -5.6 41 41 NNW 31 50 30.08 1019 10 16 0.00 0.00
4:56 pm 16:56 Cloudy 45 7.2 23 -5 42 42 NNW 36 57 30.06 1018 10 16 0.00 0.00
5:56 pm 17:56 Cloudy 45 7.2 24 -4.4 44 44 NNW 31 50 30.07 1018 10 16 0.00 0.00
6:56 pm 18:56 Cloudy 45 7.2 25 -3.9 46 46 NNW 31 50 30.10 1019 10 16 0.00 0.00
7:56 pm 19:56 Cloudy 43 6.1 26 -3.3 51 51 NNW 22 35 30.12 1020 10 16 0.00 0.00
8:56 pm 20:56 Mostly Cloudy 41 5 25 -3.9 53 53 NNW 16 26 30.14 1021 10 16 0.00 0.00
9:56 pm 21:56 Partly Cloudy 42 5.6 24 -4.4 49 49 NNW 23 37 30.13 1020 10 16 0.00 0.00
10:56 pm 22:56 Clear 41 5 23 -5 49 49 NNW 20 31 30.14 1021 10 16 0.00 0.00
11:56 pm 23:56 Clear 41 5 21 -6.1 45 45 NNW 21 33 30.12 1020 10 16 0.00 0.00

Powered by AerisWeather